Tracking 20945 objects as of 9-Jul-2020
HD Live streaming from Space Station
objects crossing your sky now

COSMOS 2251 DEB

Track COSMOS 2251 DEB now!
10-day predictions


NORAD ID: 33993
Int'l Code: 1993-036GC
Perigee: 666.8 km
Apogee: 706.7 km
Inclination: 74.0 °
Period: 98.3 minutes
Semi major axis: 7057 km
RCS: 0.021 m2 (small)
Launch date: June 16, 1993
Source: Commonwealth of Independent States (former USSR) (CIS)
Launch site: PLESETSK MISSILE AND SPACE COMPLEX (PKMTR)

Note: This is SATELLITE DEBRIS
aabbcc
Your satellite tracking list
Your tracking list is empty




NASA's NSSDC Master Catalog

Two Line Element Set (TLE):
1 33993U 93036GC  20190.93113023 +.00000755 +00000-0 +14856-3 0  9996
2 33993 074.0196 071.9539 0028295 332.7876 027.1808 14.64218472604692
Source of the keplerian elements: AFSPC